Tracking 31027 objects as of 19-Jul-2025
HD Live streaming from Space Station
objects crossing your sky now

STARLINK-4375

Track STARLINK-4375 now!
10-day predictions
STARLINK-4375 is classified as:


NORAD ID: 53192
Int'l Code: 2022-084D
Perigee: 569.2 km
Apogee: 571.1 km
Inclination: 97.7 °
Period: 95.9 minutes
Semi major axis: 6941 km
RCS: Unknown
Launch date: July 22, 2022
Source: United States (US)
Launch site: AIR FORCE WESTERN TEST RANGE (AFWTR)
Your satellite tracking list
COSMOS 1408 DEB
Track 1 satellite(s)




NASA's NSSDC Master Catalog

Two Line Element Set (TLE):
1 53192U 22084D   25199.42390735  .00000908  00000-0  75297-4 0  9996
2 53192  97.6542 260.5881 0001404  99.5737 260.5646 15.01265349164831
Source of the keplerian elements: AFSPC